Home > Time Zones > World Clock > Weather > Yemen > Sana > Past weeks

Flag for Yemen Weather past 2 weeks in Sana, Yemen

Now
73 °F

Partly sunny.


Feels Like: 77 °F
Forecast: 57 / 78 °F
Wind: 2 mph from North

Location: Sana'A Airport

Current Time: Jul 25, 2014 at 10:08:56 AM

Latest Report: Jul 25, 2014 at 9:00 AM


Visibility: N/A

Pressure: 30.24 "Hg

Humidity: 33%

Dew point: 43 °F

Location of SanaLocation

Historic Weather in Sana — Graph

°F

Sana temperature yesterday

Maximum temperature yesterday: 81 °F (at 12:00 PM)
Minimum temperature yesterday: 66 °F (at 4:00 AM)
Average temperature yesterday: 70 °F

Past Weeks' High & Low Weather Summary

 TemperatureHumidityPressure
High90 °F (Jul 14, 3:00 PM)68% (Jul 12, 6:00 AM)30.30 "Hg (Jul 12, 6:00 AM)
Low61 °F (Jul 25, 6:00 AM)9% (Jul 12, 3:00 PM)30.09 "Hg (Jul 14, 5:00 PM)
Average75 °F31%30.21 "Hg
* Reported Jul 10 9:00 AM — Jul 25 9:00 AM, Sana, Weather by CustomWeather, © 2014

Note: Actual official high and low records may vary slightly from our data, if they occured in-between our weather recording intervals... More about our weather records

Advertising

Sana weather history for previous 24 hours

 ConditionsComfort  
Time TempWeatherWind HumidityBarometerVisibility
9:00 AM
Jul 25
73 °FPartly sunny.2 mph33%30.24 "HgN/A
8:00 AM70 °FPartly sunny.2 mph35%30.21 "Hg4 mi
7:00 AM64 °FScattered clouds.2 mph46%30.21 "Hg4 mi
6:00 AM61 °FScattered clouds.3 mph52%30.21 "Hg4 mi
5:00 AM63 °FPassing clouds.1 mph49%30.18 "Hg4 mi
4:00 AM64 °FPassing clouds.2 mph49%30.18 "Hg4 mi
3:00 AM64 °FPassing clouds.1 mph52%30.18 "Hg4 mi
2:00 AM66 °FPassing clouds.1 mph43%30.21 "Hg4 mi
1:00 AM68 °FPassing clouds.3 mph43%30.21 "Hg4 mi
12:00 AM68 °FPassing clouds.3 mph43%30.24 "Hg4 mi
11:00 PM
Jul 24
68 °FPassing clouds.2 mph43%30.27 "Hg4 mi
10:00 PM68 °FPassing clouds.1 mph43%30.27 "Hg4 mi
9:00 PM68 °FPassing clouds.2 mph43%30.27 "Hg4 mi
8:00 PM68 °FPassing clouds.3 mph43%30.24 "Hg4 mi
7:00 PM70 °FPassing clouds.3 mph40%30.21 "Hg4 mi
6:00 PM70 °FPartly sunny.12 mph40%30.21 "Hg4 mi
5:00 PM70 °FRain. Partly sunny.9 mph43%30.18 "Hg4 mi
4:00 PM73 °FPartly sunny.10 mph33%30.15 "Hg4 mi
3:00 PM73 °FPartly sunny.17 mph38%30.18 "Hg1 mi
2:00 PM79 °FBroken clouds.12 mph26%30.18 "Hg6 mi
1:00 PM79 °FBroken clouds.6 mph23%30.18 "Hg5 mi
12:00 PM81 °FScattered clouds.9 mph24%30.21 "Hg5 mi
11:00 AM75 °FBroken clouds.2 mph36%30.24 "Hg5 mi
10:00 AM72 °FBroken clouds.3 mph41%30.24 "Hg5 mi
Weather by CustomWeather, © 2014

See weather overviewHow to use our weather pages